Data supplied by UK-AIR on 1/4/2011
All Data GMT hour ending 
Status: R =Ratified P=Provisional,P*=As supplied
,,Manchester South,,,,,,,,,,,,,,,,,,,,,,,
Date,time,"Nitric oxide",status,unit,"Nitrogen dioxide",status,unit,"Nitrogen oxides as nitrogen dioxide",status,unit,"Ozone",status,unit
 
01-01-2010,01:00,3,R,ugm-3,52,R,ugm-3,55,R,ugm-3,10,R,ugm-3
01-01-2010,02:00,9,R,ugm-3,59,R,ugm-3,73,R,ugm-3,6,R,ugm-3
01-01-2010,03:00,5,R,ugm-3,57,R,ugm-3,65,R,ugm-3,10,R,ugm-3
01-01-2010,04:00,5,R,ugm-3,53,R,ugm-3,61,R,ugm-3,10,R,ugm-3
01-01-2010,05:00,6,R,ugm-3,50,R,ugm-3,59,R,ugm-3,12,R,ugm-3
01-01-2010,06:00,15,R,ugm-3,55,R,ugm-3,78,R,ugm-3,4,R,ugm-3
01-01-2010,07:00,43,R,ugm-3,57,R,ugm-3,122,R,ugm-3,2,R,ugm-3
01-01-2010,08:00,71,R,ugm-3,67,R,ugm-3,176,R,ugm-3,2,R,ugm-3
01-01-2010,09:00,58,R,ugm-3,61,R,ugm-3,149,R,ugm-3,2,R,ugm-3
01-01-2010,10:00,70,R,ugm-3,55,R,ugm-3,162,R,ugm-3,4,R,ugm-3
01-01-2010,11:00,24,R,ugm-3,40,R,ugm-3,76,R,ugm-3,12,R,ugm-3
01-01-2010,12:00,11,R,ugm-3,32,R,ugm-3,50,R,ugm-3,20,R,ugm-3
01-01-2010,13:00,11,R,ugm-3,36,R,ugm-3,53,R,ugm-3,18,R,ugm-3
01-01-2010,14:00,19,R,ugm-3,42,R,ugm-3,71,R,ugm-3,16,R,ugm-3
01-01-2010,15:00,5,R,ugm-3,34,R,ugm-3,42,R,ugm-3,32,R,ugm-3
01-01-2010,16:00,13,R,ugm-3,55,R,ugm-3,74,R,ugm-3,10,R,ugm-3
01-01-2010,17:00,1,R,ugm-3,31,R,ugm-3,32,R,ugm-3,34,R,ugm-3
01-01-2010,18:00,0,R,ugm-3,31,R,ugm-3,31,R,ugm-3,34,R,ugm-3
01-01-2010,19:00,0,R,ugm-3,23,R,ugm-3,23,R,ugm-3,36,R,ugm-3
01-01-2010,20:00,0,R,ugm-3,25,R,ugm-3,25,R,ugm-3,32,R,ugm-3
01-01-2010,21:00,0,R,ugm-3,29,R,ugm-3,29,R,ugm-3,30,R,ugm-3
01-01-2010,22:00,0,R,ugm-3,31,R,ugm-3,31,R,ugm-3,26,R,ugm-3
01-01-2010,23:00,0,R,ugm-3,29,R,ugm-3,29,R,ugm-3,26,R,ugm-3
01-01-2010,24:00,0,R,ugm-3,27,R,ugm-3,27,R,ugm-3,26,R,ugm-3
02-01-2010,01:00,0,R,ugm-3,25,R,ugm-3,25,R,ugm-3,28,R,ugm-3
02-01-2010,02:00,1,R,ugm-3,25,R,ugm-3,27,R,ugm-3,22,R,ugm-3
02-01-2010,03:00,5,R,ugm-3,36,R,ugm-3,44,R,ugm-3,8,R,ugm-3
02-01-2010,04:00,10,R,ugm-3,38,R,ugm-3,53,R,ugm-3,4,R,ugm-3
02-01-2010,05:00,14,R,ugm-3,34,R,ugm-3,55,R,ugm-3,8,R,ugm-3
02-01-2010,06:00,11,R,ugm-3,38,R,ugm-3,55,R,ugm-3,8,R,ugm-3
02-01-2010,07:00,5,R,ugm-3,32,R,ugm-3,40,R,ugm-3,10,R,ugm-3
02-01-2010,08:00,1,R,ugm-3,27,R,ugm-3,29,R,ugm-3,16,R,ugm-3
02-01-2010,09:00,4,R,ugm-3,32,R,ugm-3,38,R,ugm-3,12,R,ugm-3
02-01-2010,10:00,6,R,ugm-3,32,R,ugm-3,42,R,ugm-3,18,R,ugm-3
02-01-2010,11:00,4,R,ugm-3,34,R,ugm-3,40,R,ugm-3,18,R,ugm-3
02-01-2010,12:00,6,R,ugm-3,48,R,ugm-3,57,R,ugm-3,24,R,ugm-3
02-01-2010,13:00,4,R,ugm-3,44,R,ugm-3,50,R,ugm-3,24,R,ugm-3
02-01-2010,14:00,6,R,ugm-3,38,R,ugm-3,48,R,ugm-3,26,R,ugm-3
02-01-2010,15:00,16,R,ugm-3,61,R,ugm-3,86,R,ugm-3,10,R,ugm-3
02-01-2010,16:00,10,R,ugm-3,57,R,ugm-3,73,R,ugm-3,10,R,ugm-3
02-01-2010,17:00,48,R,ugm-3,80,R,ugm-3,153,R,ugm-3,2,R,ugm-3
02-01-2010,18:00,56,R,ugm-3,74,R,ugm-3,160,R,ugm-3,2,R,ugm-3
02-01-2010,19:00,105,R,ugm-3,88,R,ugm-3,248,R,ugm-3,2,R,ugm-3
02-01-2010,20:00,25,R,ugm-3,46,R,ugm-3,84,R,ugm-3,12,R,ugm-3
02-01-2010,21:00,3,R,ugm-3,19,R,ugm-3,23,R,ugm-3,26,R,ugm-3
02-01-2010,22:00,1,R,ugm-3,15,R,ugm-3,17,R,ugm-3,26,R,ugm-3
02-01-2010,23:00,1,R,ugm-3,19,R,ugm-3,21,R,ugm-3,26,R,ugm-3
02-01-2010,24:00,1,R,ugm-3,17,R,ugm-3,19,R,ugm-3,32,R,ugm-3
03-01-2010,01:00,0,R,ugm-3,15,R,ugm-3,15,R,ugm-3,34,R,ugm-3
03-01-2010,02:00,0,R,ugm-3,13,R,ugm-3,13,R,ugm-3,36,R,ugm-3
03-01-2010,03:00,0,R,ugm-3,8,R,ugm-3,8,R,ugm-3,38,R,ugm-3
03-01-2010,04:00,0,R,ugm-3,10,R,ugm-3,10,R,ugm-3,40,R,ugm-3
03-01-2010,05:00,1,R,ugm-3,21,R,ugm-3,23,R,ugm-3,24,R,ugm-3
03-01-2010,06:00,4,R,ugm-3,32,R,ugm-3,38,R,ugm-3,14,R,ugm-3
03-01-2010,07:00,3,R,ugm-3,27,R,ugm-3,31,R,ugm-3,18,R,ugm-3
03-01-2010,08:00,5,R,ugm-3,29,R,ugm-3,36,R,ugm-3,16,R,ugm-3
03-01-2010,09:00,6,R,ugm-3,36,R,ugm-3,46,R,ugm-3,12,R,ugm-3
03-01-2010,10:00,10,R,ugm-3,32,R,ugm-3,48,R,ugm-3,12,R,ugm-3
03-01-2010,11:00,19,R,ugm-3,36,R,ugm-3,65,R,ugm-3,12,R,ugm-3
03-01-2010,12:00,16,R,ugm-3,31,R,ugm-3,55,R,ugm-3,18,R,ugm-3
03-01-2010,13:00,10,R,ugm-3,23,R,ugm-3,38,R,ugm-3,22,R,ugm-3
03-01-2010,14:00,5,R,ugm-3,19,R,ugm-3,27,R,ugm-3,26,R,ugm-3
03-01-2010,15:00,3,R,ugm-3,21,R,ugm-3,25,R,ugm-3,24,R,ugm-3
03-01-2010,16:00,6,R,ugm-3,34,R,ugm-3,44,R,ugm-3,12,R,ugm-3
03-01-2010,17:00,61,R,ugm-3,61,R,ugm-3,155,R,ugm-3,2,R,ugm-3
03-01-2010,18:00,156,R,ugm-3,86,R,ugm-3,325,R,ugm-3,2,R,ugm-3
03-01-2010,19:00,129,R,ugm-3,80,R,ugm-3,277,R,ugm-3,2,R,ugm-3
03-01-2010,20:00,111,R,ugm-3,71,R,ugm-3,241,R,ugm-3,2,R,ugm-3
03-01-2010,21:00,138,R,ugm-3,71,R,ugm-3,281,R,ugm-3,2,R,ugm-3
03-01-2010,22:00,156,R,ugm-3,69,R,ugm-3,308,R,ugm-3,2,R,ugm-3
03-01-2010,23:00,111,R,ugm-3,53,R,ugm-3,223,R,ugm-3,2,R,ugm-3
03-01-2010,24:00,128,R,ugm-3,57,R,ugm-3,252,R,ugm-3,2,R,ugm-3
04-01-2010,01:00,106,R,ugm-3,52,R,ugm-3,214,R,ugm-3,2,R,ugm-3
04-01-2010,02:00,73,R,ugm-3,42,R,ugm-3,153,R,ugm-3,2,R,ugm-3
04-01-2010,03:00,45,R,ugm-3,34,R,ugm-3,103,R,ugm-3,2,R,ugm-3
04-01-2010,04:00,58,R,ugm-3,36,R,ugm-3,124,R,ugm-3,2,R,ugm-3
04-01-2010,05:00,76,R,ugm-3,36,R,ugm-3,153,R,ugm-3,2,R,ugm-3
04-01-2010,06:00,63,R,ugm-3,38,R,ugm-3,134,R,ugm-3,2,R,ugm-3
04-01-2010,07:00,100,R,ugm-3,46,R,ugm-3,199,R,ugm-3,2,R,ugm-3
04-01-2010,08:00,115,R,ugm-3,57,R,ugm-3,233,R,ugm-3,2,R,ugm-3
04-01-2010,09:00,195,R,ugm-3,74,R,ugm-3,372,R,ugm-3,2,R,ugm-3
04-01-2010,10:00,218,R,ugm-3,80,R,ugm-3,413,R,ugm-3,2,R,ugm-3
04-01-2010,11:00,123,R,ugm-3,61,R,ugm-3,248,R,ugm-3,6,R,ugm-3
04-01-2010,12:00,60,R,ugm-3,46,R,ugm-3,138,R,ugm-3,8,R,ugm-3
04-01-2010,13:00,41,R,ugm-3,46,R,ugm-3,109,R,ugm-3,10,R,ugm-3
04-01-2010,14:00,35,R,ugm-3,46,R,ugm-3,99,R,ugm-3,10,R,ugm-3
04-01-2010,15:00,40,R,ugm-3,50,R,ugm-3,111,R,ugm-3,6,R,ugm-3
04-01-2010,16:00,46,R,ugm-3,53,R,ugm-3,124,R,ugm-3,4,R,ugm-3
04-01-2010,17:00,64,R,ugm-3,59,R,ugm-3,157,R,ugm-3,2,R,ugm-3
04-01-2010,18:00,55,R,ugm-3,57,R,ugm-3,141,R,ugm-3,2,R,ugm-3
04-01-2010,19:00,36,R,ugm-3,52,R,ugm-3,107,R,ugm-3,2,R,ugm-3
04-01-2010,20:00,20,R,ugm-3,48,R,ugm-3,78,R,ugm-3,2,R,ugm-3
04-01-2010,21:00,6,R,ugm-3,42,R,ugm-3,52,R,ugm-3,6,R,ugm-3
04-01-2010,22:00,5,R,ugm-3,40,R,ugm-3,48,R,ugm-3,6,R,ugm-3
04-01-2010,23:00,3,R,ugm-3,32,R,ugm-3,36,R,ugm-3,10,R,ugm-3
04-01-2010,24:00,1,R,ugm-3,23,R,ugm-3,25,R,ugm-3,14,R,ugm-3
05-01-2010,01:00,1,R,ugm-3,19,R,ugm-3,21,R,ugm-3,18,R,ugm-3
05-01-2010,02:00,0,R,ugm-3,19,R,ugm-3,19,R,ugm-3,20,R,ugm-3
05-01-2010,03:00,0,R,ugm-3,17,R,ugm-3,17,R,ugm-3,22,R,ugm-3
05-01-2010,04:00,0,R,ugm-3,13,R,ugm-3,13,R,ugm-3,22,R,ugm-3
05-01-2010,05:00,0,R,ugm-3,15,R,ugm-3,15,R,ugm-3,24,R,ugm-3
05-01-2010,06:00,0,R,ugm-3,15,R,ugm-3,15,R,ugm-3,24,R,ugm-3
05-01-2010,07:00,0,R,ugm-3,15,R,ugm-3,15,R,ugm-3,24,R,ugm-3
05-01-2010,08:00,0,R,ugm-3,19,R,ugm-3,19,R,ugm-3,22,R,ugm-3
05-01-2010,09:00,1,R,ugm-3,25,R,ugm-3,27,R,ugm-3,20,R,ugm-3
05-01-2010,10:00,18,R,ugm-3,46,R,ugm-3,73,R,ugm-3,8,R,ugm-3
05-01-2010,11:00,30,R,ugm-3,48,R,ugm-3,94,R,ugm-3,10,R,ugm-3
05-01-2010,12:00,24,R,ugm-3,46,R,ugm-3,82,R,ugm-3,8,R,ugm-3
05-01-2010,13:00,23,R,ugm-3,53,R,ugm-3,88,R,ugm-3,10,R,ugm-3
05-01-2010,14:00,10,R,ugm-3,48,R,ugm-3,63,R,ugm-3,30,R,ugm-3
05-01-2010,15:00,,,,,,,,,,,,
05-01-2010,16:00,3,R,ugm-3,50,R,ugm-3,53,R,ugm-3,20,R,ugm-3
05-01-2010,17:00,0,R,ugm-3,29,R,ugm-3,29,R,ugm-3,38,R,ugm-3
05-01-2010,18:00,0,R,ugm-3,36,R,ugm-3,36,R,ugm-3,34,R,ugm-3
05-01-2010,19:00,1,R,ugm-3,38,R,ugm-3,40,R,ugm-3,34,R,ugm-3
05-01-2010,20:00,0,R,ugm-3,29,R,ugm-3,29,R,ugm-3,40,R,ugm-3
05-01-2010,21:00,0,R,ugm-3,31,R,ugm-3,31,R,ugm-3,40,R,ugm-3
05-01-2010,22:00,0,R,ugm-3,27,R,ugm-3,27,R,ugm-3,40,R,ugm-3
05-01-2010,23:00,0,R,ugm-3,27,R,ugm-3,27,R,ugm-3,42,R,ugm-3
05-01-2010,24:00,0,R,ugm-3,19,R,ugm-3,19,R,ugm-3,50,R,ugm-3
06-01-2010,01:00,0,R,ugm-3,11,R,ugm-3,11,R,ugm-3,56,R,ugm-3
06-01-2010,02:00,0,R,ugm-3,11,R,ugm-3,11,R,ugm-3,54,R,ugm-3
06-01-2010,03:00,0,R,ugm-3,13,R,ugm-3,13,R,ugm-3,54,R,ugm-3
06-01-2010,04:00,0,R,ugm-3,13,R,ugm-3,13,R,ugm-3,50,R,ugm-3
06-01-2010,05:00,0,R,ugm-3,15,R,ugm-3,15,R,ugm-3,48,R,ugm-3
06-01-2010,06:00,0,R,ugm-3,15,R,ugm-3,15,R,ugm-3,48,R,ugm-3
06-01-2010,07:00,0,R,ugm-3,19,R,ugm-3,19,R,ugm-3,42,R,ugm-3
06-01-2010,08:00,1,R,ugm-3,29,R,ugm-3,31,R,ugm-3,36,R,ugm-3
06-01-2010,09:00,3,R,ugm-3,29,R,ugm-3,32,R,ugm-3,34,R,ugm-3
06-01-2010,10:00,4,R,ugm-3,36,R,ugm-3,42,R,ugm-3,28,R,ugm-3
06-01-2010,11:00,8,R,ugm-3,32,R,ugm-3,44,R,ugm-3,30,R,ugm-3
06-01-2010,12:00,6,R,ugm-3,31,R,ugm-3,40,R,ugm-3,36,R,ugm-3
06-01-2010,13:00,4,R,ugm-3,23,R,ugm-3,29,R,ugm-3,38,R,ugm-3
06-01-2010,14:00,3,R,ugm-3,25,R,ugm-3,29,R,ugm-3,38,R,ugm-3
06-01-2010,15:00,3,R,ugm-3,21,R,ugm-3,25,R,ugm-3,44,R,ugm-3
06-01-2010,16:00,3,R,ugm-3,31,R,ugm-3,34,R,ugm-3,38,R,ugm-3
06-01-2010,17:00,4,R,ugm-3,61,R,ugm-3,67,R,ugm-3,16,R,ugm-3
06-01-2010,18:00,4,R,ugm-3,65,R,ugm-3,71,R,ugm-3,12,R,ugm-3
06-01-2010,19:00,14,R,ugm-3,78,R,ugm-3,99,R,ugm-3,6,R,ugm-3
06-01-2010,20:00,11,R,ugm-3,74,R,ugm-3,92,R,ugm-3,8,R,ugm-3
06-01-2010,21:00,46,R,ugm-3,86,R,ugm-3,157,R,ugm-3,2,R,ugm-3
06-01-2010,22:00,74,R,ugm-3,96,R,ugm-3,208,R,ugm-3,2,R,ugm-3
06-01-2010,23:00,79,R,ugm-3,90,R,ugm-3,210,R,ugm-3,2,R,ugm-3
06-01-2010,24:00,79,R,ugm-3,94,R,ugm-3,214,R,ugm-3,2,R,ugm-3
07-01-2010,01:00,108,R,ugm-3,84,R,ugm-3,248,R,ugm-3,2,R,ugm-3
07-01-2010,02:00,73,R,ugm-3,69,R,ugm-3,180,R,ugm-3,2,R,ugm-3
07-01-2010,03:00,56,R,ugm-3,67,R,ugm-3,153,R,ugm-3,2,R,ugm-3
07-01-2010,04:00,50,R,ugm-3,61,R,ugm-3,138,R,ugm-3,2,R,ugm-3
07-01-2010,05:00,56,R,ugm-3,63,R,ugm-3,149,R,ugm-3,2,R,ugm-3
07-01-2010,06:00,56,R,ugm-3,61,R,ugm-3,147,R,ugm-3,2,R,ugm-3
07-01-2010,07:00,90,R,ugm-3,67,R,ugm-3,204,R,ugm-3,2,R,ugm-3
07-01-2010,08:00,68,R,ugm-3,67,R,ugm-3,170,R,ugm-3,2,R,ugm-3
07-01-2010,09:00,174,R,ugm-3,90,R,ugm-3,355,R,ugm-3,4,R,ugm-3
07-01-2010,10:00,189,R,ugm-3,90,R,ugm-3,378,R,ugm-3,4,R,ugm-3
07-01-2010,11:00,113,R,ugm-3,74,R,ugm-3,246,R,ugm-3,8,R,ugm-3
07-01-2010,12:00,81,R,ugm-3,69,R,ugm-3,193,R,ugm-3,14,R,ugm-3
07-01-2010,13:00,79,R,ugm-3,69,R,ugm-3,189,R,ugm-3,14,R,ugm-3
07-01-2010,14:00,61,R,ugm-3,73,R,ugm-3,166,R,ugm-3,16,R,ugm-3
07-01-2010,15:00,64,R,ugm-3,84,R,ugm-3,181,R,ugm-3,10,R,ugm-3
07-01-2010,16:00,111,R,ugm-3,101,R,ugm-3,271,R,ugm-3,4,R,ugm-3
07-01-2010,17:00,198,R,ugm-3,126,R,ugm-3,428,R,ugm-3,2,R,ugm-3
07-01-2010,18:00,308,R,ugm-3,143,R,ugm-3,613,R,ugm-3,4,R,ugm-3
07-01-2010,19:00,398,R,ugm-3,164,R,ugm-3,772,R,ugm-3,4,R,ugm-3
07-01-2010,20:00,348,R,ugm-3,157,R,ugm-3,688,R,ugm-3,4,R,ugm-3
07-01-2010,21:00,261,R,ugm-3,126,R,ugm-3,525,R,ugm-3,4,R,ugm-3
07-01-2010,22:00,300,R,ugm-3,130,R,ugm-3,588,R,ugm-3,4,R,ugm-3
07-01-2010,23:00,288,R,ugm-3,128,R,ugm-3,567,R,ugm-3,4,R,ugm-3
07-01-2010,24:00,286,R,ugm-3,124,R,ugm-3,562,R,ugm-3,4,R,ugm-3
08-01-2010,01:00,294,R,ugm-3,122,R,ugm-3,571,R,ugm-3,4,R,ugm-3
08-01-2010,02:00,270,R,ugm-3,113,R,ugm-3,525,R,ugm-3,4,R,ugm-3
08-01-2010,03:00,255,R,ugm-3,111,R,ugm-3,500,R,ugm-3,4,R,ugm-3
08-01-2010,04:00,256,R,ugm-3,122,R,ugm-3,514,R,ugm-3,4,R,ugm-3
08-01-2010,05:00,278,R,ugm-3,139,R,ugm-3,563,R,ugm-3,4,R,ugm-3
08-01-2010,06:00,348,R,ugm-3,157,R,ugm-3,688,R,ugm-3,4,R,ugm-3
08-01-2010,07:00,393,R,ugm-3,185,R,ugm-3,785,R,ugm-3,4,R,ugm-3
08-01-2010,08:00,444,R,ugm-3,202,R,ugm-3,881,R,ugm-3,4,R,ugm-3
08-01-2010,09:00,489,R,ugm-3,218,R,ugm-3,965,R,ugm-3,4,R,ugm-3
08-01-2010,10:00,433,R,ugm-3,208,R,ugm-3,869,R,ugm-3,2,R,ugm-3
08-01-2010,11:00,446,R,ugm-3,220,R,ugm-3,902,R,ugm-3,2,R,ugm-3
08-01-2010,12:00,295,R,ugm-3,174,R,ugm-3,625,R,ugm-3,4,R,ugm-3
08-01-2010,13:00,135,R,ugm-3,107,R,ugm-3,313,R,ugm-3,12,R,ugm-3
08-01-2010,14:00,29,R,ugm-3,55,R,ugm-3,99,R,ugm-3,24,R,ugm-3
08-01-2010,15:00,24,R,ugm-3,59,R,ugm-3,96,R,ugm-3,20,R,ugm-3
08-01-2010,16:00,28,R,ugm-3,76,R,ugm-3,118,R,ugm-3,10,R,ugm-3
08-01-2010,17:00,50,R,ugm-3,96,R,ugm-3,172,R,ugm-3,2,R,ugm-3
08-01-2010,18:00,46,R,ugm-3,96,R,ugm-3,166,R,ugm-3,2,R,ugm-3
08-01-2010,19:00,60,R,ugm-3,97,R,ugm-3,189,R,ugm-3,2,R,ugm-3
08-01-2010,20:00,76,R,ugm-3,101,R,ugm-3,218,R,ugm-3,2,R,ugm-3
08-01-2010,21:00,94,R,ugm-3,103,R,ugm-3,246,R,ugm-3,2,R,ugm-3
08-01-2010,22:00,109,R,ugm-3,103,R,ugm-3,269,R,ugm-3,2,R,ugm-3
08-01-2010,23:00,120,R,ugm-3,103,R,ugm-3,287,R,ugm-3,2,R,ugm-3
08-01-2010,24:00,85,R,ugm-3,92,R,ugm-3,222,R,ugm-3,2,R,ugm-3
09-01-2010,01:00,56,R,ugm-3,82,R,ugm-3,168,R,ugm-3,2,R,ugm-3
09-01-2010,02:00,4,R,ugm-3,55,R,ugm-3,61,R,ugm-3,10,R,ugm-3
09-01-2010,03:00,3,R,ugm-3,52,R,ugm-3,55,R,ugm-3,12,R,ugm-3
09-01-2010,04:00,3,R,ugm-3,44,R,ugm-3,48,R,ugm-3,22,R,ugm-3
09-01-2010,05:00,3,R,ugm-3,38,R,ugm-3,42,R,ugm-3,22,R,ugm-3
09-01-2010,06:00,23,R,ugm-3,57,R,ugm-3,92,R,ugm-3,6,R,ugm-3
09-01-2010,07:00,13,R,ugm-3,46,R,ugm-3,65,R,ugm-3,16,R,ugm-3
09-01-2010,08:00,1,R,ugm-3,38,R,ugm-3,40,R,ugm-3,20,R,ugm-3
09-01-2010,09:00,10,R,ugm-3,50,R,ugm-3,65,R,ugm-3,12,R,ugm-3
09-01-2010,10:00,9,R,ugm-3,38,R,ugm-3,52,R,ugm-3,22,R,ugm-3
09-01-2010,11:00,10,R,ugm-3,34,R,ugm-3,50,R,ugm-3,30,R,ugm-3
09-01-2010,12:00,8,R,ugm-3,29,R,ugm-3,40,R,ugm-3,36,R,ugm-3
09-01-2010,13:00,5,R,ugm-3,27,R,ugm-3,34,R,ugm-3,40,R,ugm-3
09-01-2010,14:00,3,R,ugm-3,21,R,ugm-3,25,R,ugm-3,40,R,ugm-3
09-01-2010,15:00,4,R,ugm-3,27,R,ugm-3,32,R,ugm-3,38,R,ugm-3
09-01-2010,16:00,3,R,ugm-3,29,R,ugm-3,32,R,ugm-3,34,R,ugm-3
09-01-2010,17:00,1,R,ugm-3,34,R,ugm-3,36,R,ugm-3,30,R,ugm-3
09-01-2010,18:00,1,R,ugm-3,32,R,ugm-3,34,R,ugm-3,30,R,ugm-3
09-01-2010,19:00,0,R,ugm-3,34,R,ugm-3,34,R,ugm-3,32,R,ugm-3
09-01-2010,20:00,0,R,ugm-3,31,R,ugm-3,31,R,ugm-3,34,R,ugm-3
09-01-2010,21:00,0,R,ugm-3,29,R,ugm-3,29,R,ugm-3,36,R,ugm-3
09-01-2010,22:00,0,R,ugm-3,23,R,ugm-3,23,R,ugm-3,40,R,ugm-3
09-01-2010,23:00,0,R,ugm-3,19,R,ugm-3,19,R,ugm-3,42,R,ugm-3
09-01-2010,24:00,0,R,ugm-3,15,R,ugm-3,15,R,ugm-3,44,R,ugm-3
10-01-2010,01:00,0,R,ugm-3,13,R,ugm-3,13,R,ugm-3,44,R,ugm-3
10-01-2010,02:00,0,R,ugm-3,11,R,ugm-3,11,R,ugm-3,48,R,ugm-3
10-01-2010,03:00,0,R,ugm-3,11,R,ugm-3,11,R,ugm-3,54,R,ugm-3
10-01-2010,04:00,0,R,ugm-3,11,R,ugm-3,11,R,ugm-3,56,R,ugm-3
10-01-2010,05:00,0,R,ugm-3,13,R,ugm-3,13,R,ugm-3,56,R,ugm-3
10-01-2010,06:00,0,R,ugm-3,11,R,ugm-3,11,R,ugm-3,56,R,ugm-3
10-01-2010,07:00,0,R,ugm-3,13,R,ugm-3,13,R,ugm-3,54,R,ugm-3
10-01-2010,08:00,0,R,ugm-3,17,R,ugm-3,17,R,ugm-3,44,R,ugm-3
10-01-2010,09:00,0,R,ugm-3,17,R,ugm-3,17,R,ugm-3,38,R,ugm-3
10-01-2010,10:00,1,R,ugm-3,17,R,ugm-3,19,R,ugm-3,34,R,ugm-3
10-01-2010,11:00,3,R,ugm-3,21,R,ugm-3,25,R,ugm-3,36,R,ugm-3
10-01-2010,12:00,1,R,ugm-3,23,R,ugm-3,25,R,ugm-3,38,R,ugm-3
10-01-2010,13:00,4,R,ugm-3,27,R,ugm-3,32,R,ugm-3,36,R,ugm-3
10-01-2010,14:00,3,R,ugm-3,23,R,ugm-3,27,R,ugm-3,38,R,ugm-3
10-01-2010,15:00,3,R,ugm-3,23,R,ugm-3,27,R,ugm-3,36,R,ugm-3
10-01-2010,16:00,1,R,ugm-3,27,R,ugm-3,29,R,ugm-3,36,R,ugm-3
10-01-2010,17:00,1,R,ugm-3,29,R,ugm-3,31,R,ugm-3,32,R,ugm-3
10-01-2010,18:00,1,R,ugm-3,31,R,ugm-3,32,R,ugm-3,32,R,ugm-3
10-01-2010,19:00,1,R,ugm-3,25,R,ugm-3,27,R,ugm-3,40,R,ugm-3
10-01-2010,20:00,1,R,ugm-3,25,R,ugm-3,27,R,ugm-3,40,R,ugm-3
10-01-2010,21:00,0,R,ugm-3,17,R,ugm-3,17,R,ugm-3,48,R,ugm-3
10-01-2010,22:00,0,R,ugm-3,19,R,ugm-3,19,R,ugm-3,46,R,ugm-3
10-01-2010,23:00,0,R,ugm-3,21,R,ugm-3,21,R,ugm-3,46,R,ugm-3
10-01-2010,24:00,0,R,ugm-3,19,R,ugm-3,19,R,ugm-3,46,R,ugm-3
11-01-2010,01:00,0,R,ugm-3,15,R,ugm-3,15,R,ugm-3,48,R,ugm-3
11-01-2010,02:00,0,R,ugm-3,10,R,ugm-3,10,R,ugm-3,50,R,ugm-3
11-01-2010,03:00,0,R,ugm-3,11,R,ugm-3,11,R,ugm-3,50,R,ugm-3
11-01-2010,04:00,0,R,ugm-3,11,R,ugm-3,11,R,ugm-3,48,R,ugm-3
11-01-2010,05:00,0,R,ugm-3,13,R,ugm-3,13,R,ugm-3,44,R,ugm-3
11-01-2010,06:00,0,R,ugm-3,21,R,ugm-3,21,R,ugm-3,40,R,ugm-3
11-01-2010,07:00,1,R,ugm-3,21,R,ugm-3,23,R,ugm-3,38,R,ugm-3
11-01-2010,08:00,3,R,ugm-3,29,R,ugm-3,32,R,ugm-3,34,R,ugm-3
11-01-2010,09:00,5,R,ugm-3,42,R,ugm-3,50,R,ugm-3,26,R,ugm-3
11-01-2010,10:00,5,R,ugm-3,36,R,ugm-3,44,R,ugm-3,28,R,ugm-3
11-01-2010,11:00,8,R,ugm-3,44,R,ugm-3,55,R,ugm-3,24,R,ugm-3
11-01-2010,12:00,11,R,ugm-3,44,R,ugm-3,61,R,ugm-3,24,R,ugm-3
11-01-2010,13:00,8,R,ugm-3,36,R,ugm-3,48,R,ugm-3,30,R,ugm-3
11-01-2010,14:00,4,R,ugm-3,32,R,ugm-3,38,R,ugm-3,34,R,ugm-3
11-01-2010,15:00,8,R,ugm-3,44,R,ugm-3,55,R,ugm-3,24,R,ugm-3
11-01-2010,16:00,10,R,ugm-3,53,R,ugm-3,69,R,ugm-3,18,R,ugm-3
11-01-2010,17:00,10,R,ugm-3,53,R,ugm-3,69,R,ugm-3,18,R,ugm-3
11-01-2010,18:00,13,R,ugm-3,57,R,ugm-3,76,R,ugm-3,12,R,ugm-3
11-01-2010,19:00,6,R,ugm-3,48,R,ugm-3,57,R,ugm-3,20,R,ugm-3
11-01-2010,20:00,8,R,ugm-3,53,R,ugm-3,65,R,ugm-3,16,R,ugm-3
11-01-2010,21:00,1,R,ugm-3,31,R,ugm-3,32,R,ugm-3,32,R,ugm-3
11-01-2010,22:00,4,R,ugm-3,36,R,ugm-3,42,R,ugm-3,26,R,ugm-3
11-01-2010,23:00,1,R,ugm-3,25,R,ugm-3,27,R,ugm-3,36,R,ugm-3
11-01-2010,24:00,1,R,ugm-3,23,R,ugm-3,25,R,ugm-3,34,R,ugm-3
12-01-2010,01:00,0,R,ugm-3,19,R,ugm-3,19,R,ugm-3,36,R,ugm-3
12-01-2010,02:00,0,R,ugm-3,19,R,ugm-3,19,R,ugm-3,38,R,ugm-3
12-01-2010,03:00,0,R,ugm-3,15,R,ugm-3,15,R,ugm-3,40,R,ugm-3
12-01-2010,04:00,0,R,ugm-3,13,R,ugm-3,13,R,ugm-3,40,R,ugm-3
12-01-2010,05:00,0,R,ugm-3,13,R,ugm-3,13,R,ugm-3,36,R,ugm-3
12-01-2010,06:00,0,R,ugm-3,15,R,ugm-3,15,R,ugm-3,36,R,ugm-3
12-01-2010,07:00,1,R,ugm-3,15,R,ugm-3,17,R,ugm-3,30,R,ugm-3
12-01-2010,08:00,1,R,ugm-3,21,R,ugm-3,23,R,ugm-3,24,R,ugm-3
12-01-2010,09:00,3,R,ugm-3,21,R,ugm-3,25,R,ugm-3,20,R,ugm-3
12-01-2010,10:00,3,R,ugm-3,19,R,ugm-3,23,R,ugm-3,20,R,ugm-3
12-01-2010,11:00,1,R,ugm-3,19,R,ugm-3,21,R,ugm-3,20,R,ugm-3
12-01-2010,12:00,3,R,ugm-3,19,R,ugm-3,23,R,ugm-3,18,R,ugm-3
12-01-2010,13:00,4,R,ugm-3,25,R,ugm-3,31,R,ugm-3,18,R,ugm-3
12-01-2010,14:00,3,R,ugm-3,23,R,ugm-3,27,R,ugm-3,16,R,ugm-3
12-01-2010,15:00,4,R,ugm-3,27,R,ugm-3,32,R,ugm-3,12,R,ugm-3
12-01-2010,16:00,5,R,ugm-3,29,R,ugm-3,36,R,ugm-3,10,R,ugm-3
12-01-2010,17:00,4,R,ugm-3,29,R,ugm-3,34,R,ugm-3,10,R,ugm-3
12-01-2010,18:00,3,R,ugm-3,29,R,ugm-3,32,R,ugm-3,14,R,ugm-3
12-01-2010,19:00,1,R,ugm-3,27,R,ugm-3,29,R,ugm-3,14,R,ugm-3
12-01-2010,20:00,1,R,ugm-3,23,R,ugm-3,25,R,ugm-3,14,R,ugm-3
12-01-2010,21:00,1,R,ugm-3,25,R,ugm-3,27,R,ugm-3,10,R,ugm-3
12-01-2010,22:00,1,R,ugm-3,29,R,ugm-3,31,R,ugm-3,10,R,ugm-3
12-01-2010,23:00,1,R,ugm-3,29,R,ugm-3,31,R,ugm-3,10,R,ugm-3
12-01-2010,24:00,1,R,ugm-3,27,R,ugm-3,29,R,ugm-3,12,R,ugm-3
13-01-2010,01:00,0,R,ugm-3,19,R,ugm-3,19,R,ugm-3,14,R,ugm-3
13-01-2010,02:00,0,R,ugm-3,19,R,ugm-3,19,R,ugm-3,16,R,ugm-3
13-01-2010,03:00,0,R,ugm-3,21,R,ugm-3,21,R,ugm-3,18,R,ugm-3
13-01-2010,04:00,1,R,ugm-3,29,R,ugm-3,31,R,ugm-3,10,R,ugm-3
13-01-2010,05:00,3,R,ugm-3,38,R,ugm-3,42,R,ugm-3,4,R,ugm-3
13-01-2010,06:00,5,R,ugm-3,42,R,ugm-3,50,R,ugm-3,2,R,ugm-3
13-01-2010,07:00,9,R,ugm-3,44,R,ugm-3,57,R,ugm-3,2,R,ugm-3
13-01-2010,08:00,10,R,ugm-3,42,R,ugm-3,57,R,ugm-3,2,R,ugm-3
13-01-2010,09:00,19,R,ugm-3,48,R,ugm-3,76,R,ugm-3,2,R,ugm-3
13-01-2010,10:00,23,R,ugm-3,42,R,ugm-3,76,R,ugm-3,6,R,ugm-3
13-01-2010,11:00,23,R,ugm-3,38,R,ugm-3,73,R,ugm-3,6,R,ugm-3
13-01-2010,12:00,20,R,ugm-3,34,R,ugm-3,65,R,ugm-3,8,R,ugm-3
13-01-2010,13:00,21,R,ugm-3,34,R,ugm-3,67,R,ugm-3,8,R,ugm-3
13-01-2010,14:00,23,R,ugm-3,36,R,ugm-3,71,R,ugm-3,8,R,ugm-3
13-01-2010,15:00,23,R,ugm-3,40,R,ugm-3,74,R,ugm-3,8,R,ugm-3
13-01-2010,16:00,23,R,ugm-3,44,R,ugm-3,78,R,ugm-3,6,R,ugm-3
13-01-2010,17:00,34,R,ugm-3,52,R,ugm-3,103,R,ugm-3,2,R,ugm-3
13-01-2010,18:00,45,R,ugm-3,57,R,ugm-3,126,R,ugm-3,2,R,ugm-3
13-01-2010,19:00,28,R,ugm-3,52,R,ugm-3,94,R,ugm-3,2,R,ugm-3
13-01-2010,20:00,38,R,ugm-3,53,R,ugm-3,111,R,ugm-3,2,R,ugm-3
13-01-2010,21:00,46,R,ugm-3,52,R,ugm-3,122,R,ugm-3,2,R,ugm-3
13-01-2010,22:00,30,R,ugm-3,50,R,ugm-3,96,R,ugm-3,2,R,ugm-3
13-01-2010,23:00,16,R,ugm-3,44,R,ugm-3,69,R,ugm-3,2,R,ugm-3
13-01-2010,24:00,11,R,ugm-3,44,R,ugm-3,61,R,ugm-3,2,R,ugm-3
14-01-2010,01:00,14,R,ugm-3,44,R,ugm-3,65,R,ugm-3,2,R,ugm-3
14-01-2010,02:00,10,R,ugm-3,44,R,ugm-3,59,R,ugm-3,2,R,ugm-3
14-01-2010,03:00,6,R,ugm-3,44,R,ugm-3,53,R,ugm-3,2,R,ugm-3
14-01-2010,04:00,13,R,ugm-3,46,R,ugm-3,65,R,ugm-3,2,R,ugm-3
14-01-2010,05:00,15,R,ugm-3,46,R,ugm-3,69,R,ugm-3,0,R,ugm-3
14-01-2010,06:00,14,R,ugm-3,50,R,ugm-3,71,R,ugm-3,0,R,ugm-3
14-01-2010,07:00,16,R,ugm-3,50,R,ugm-3,74,R,ugm-3,2,R,ugm-3
14-01-2010,08:00,34,R,ugm-3,53,R,ugm-3,105,R,ugm-3,2,R,ugm-3
14-01-2010,09:00,105,R,ugm-3,73,R,ugm-3,233,R,ugm-3,2,R,ugm-3
14-01-2010,10:00,148,R,ugm-3,82,R,ugm-3,308,R,ugm-3,2,R,ugm-3
14-01-2010,11:00,98,R,ugm-3,69,R,ugm-3,218,R,ugm-3,6,R,ugm-3
14-01-2010,12:00,39,R,ugm-3,57,R,ugm-3,117,R,ugm-3,12,R,ugm-3
14-01-2010,13:00,16,R,ugm-3,44,R,ugm-3,69,R,ugm-3,26,R,ugm-3
14-01-2010,14:00,8,R,ugm-3,38,R,ugm-3,50,R,ugm-3,28,R,ugm-3
14-01-2010,15:00,14,R,ugm-3,46,R,ugm-3,67,R,ugm-3,22,R,ugm-3
14-01-2010,16:00,14,R,ugm-3,55,R,ugm-3,76,R,ugm-3,18,R,ugm-3
14-01-2010,17:00,61,R,ugm-3,88,R,ugm-3,181,R,ugm-3,2,R,ugm-3
14-01-2010,18:00,30,R,ugm-3,73,R,ugm-3,118,R,ugm-3,4,R,ugm-3
14-01-2010,19:00,99,R,ugm-3,96,R,ugm-3,246,R,ugm-3,2,R,ugm-3
14-01-2010,20:00,69,R,ugm-3,74,R,ugm-3,180,R,ugm-3,2,R,ugm-3
14-01-2010,21:00,30,R,ugm-3,65,R,ugm-3,111,R,ugm-3,2,R,ugm-3
14-01-2010,22:00,26,R,ugm-3,67,R,ugm-3,107,R,ugm-3,2,R,ugm-3
14-01-2010,23:00,76,R,ugm-3,73,R,ugm-3,189,R,ugm-3,2,R,ugm-3
14-01-2010,24:00,58,R,ugm-3,59,R,ugm-3,147,R,ugm-3,2,R,ugm-3
15-01-2010,01:00,54,R,ugm-3,57,R,ugm-3,139,R,ugm-3,2,R,ugm-3
15-01-2010,02:00,68,R,ugm-3,55,R,ugm-3,159,R,ugm-3,2,R,ugm-3
15-01-2010,03:00,69,R,ugm-3,55,R,ugm-3,160,R,ugm-3,2,R,ugm-3
15-01-2010,04:00,38,R,ugm-3,53,R,ugm-3,111,R,ugm-3,6,R,ugm-3
15-01-2010,05:00,10,R,ugm-3,53,R,ugm-3,69,R,ugm-3,4,R,ugm-3
15-01-2010,06:00,5,R,ugm-3,52,R,ugm-3,59,R,ugm-3,4,R,ugm-3
15-01-2010,07:00,3,R,ugm-3,36,R,ugm-3,40,R,ugm-3,12,R,ugm-3
15-01-2010,08:00,3,R,ugm-3,27,R,ugm-3,31,R,ugm-3,16,R,ugm-3
15-01-2010,09:00,3,R,ugm-3,23,R,ugm-3,27,R,ugm-3,14,R,ugm-3
15-01-2010,10:00,1,R,ugm-3,21,R,ugm-3,23,R,ugm-3,20,R,ugm-3
15-01-2010,11:00,1,R,ugm-3,25,R,ugm-3,27,R,ugm-3,20,R,ugm-3
15-01-2010,12:00,3,R,ugm-3,27,R,ugm-3,31,R,ugm-3,16,R,ugm-3
15-01-2010,13:00,4,R,ugm-3,27,R,ugm-3,32,R,ugm-3,20,R,ugm-3
15-01-2010,14:00,4,R,ugm-3,29,R,ugm-3,34,R,ugm-3,22,R,ugm-3
15-01-2010,15:00,4,R,ugm-3,25,R,ugm-3,31,R,ugm-3,18,R,ugm-3
15-01-2010,16:00,4,R,ugm-3,32,R,ugm-3,38,R,ugm-3,18,R,ugm-3
15-01-2010,17:00,3,R,ugm-3,31,R,ugm-3,34,R,ugm-3,16,R,ugm-3
15-01-2010,18:00,1,R,ugm-3,29,R,ugm-3,31,R,ugm-3,14,R,ugm-3
15-01-2010,19:00,1,R,ugm-3,29,R,ugm-3,31,R,ugm-3,16,R,ugm-3
15-01-2010,20:00,1,R,ugm-3,25,R,ugm-3,27,R,ugm-3,18,R,ugm-3
15-01-2010,21:00,1,R,ugm-3,19,R,ugm-3,21,R,ugm-3,20,R,ugm-3
15-01-2010,22:00,0,R,ugm-3,19,R,ugm-3,19,R,ugm-3,22,R,ugm-3
15-01-2010,23:00,0,R,ugm-3,17,R,ugm-3,17,R,ugm-3,22,R,ugm-3
15-01-2010,24:00,0,R,ugm-3,17,R,ugm-3,17,R,ugm-3,22,R,ugm-3
16-01-2010,01:00,0,R,ugm-3,15,R,ugm-3,15,R,ugm-3,24,R,ugm-3
16-01-2010,02:00,0,R,ugm-3,13,R,ugm-3,13,R,ugm-3,24,R,ugm-3
16-01-2010,03:00,0,R,ugm-3,13,R,ugm-3,13,R,ugm-3,28,R,ugm-3
16-01-2010,04:00,0,R,ugm-3,11,R,ugm-3,11,R,ugm-3,30,R,ugm-3
16-01-2010,05:00,0,R,ugm-3,11,R,ugm-3,11,R,ugm-3,30,R,ugm-3
16-01-2010,06:00,0,R,ugm-3,11,R,ugm-3,11,R,ugm-3,30,R,ugm-3
16-01-2010,07:00,0,R,ugm-3,13,R,ugm-3,13,R,ugm-3,34,R,ugm-3
16-01-2010,08:00,0,R,ugm-3,13,R,ugm-3,13,R,ugm-3,34,R,ugm-3
16-01-2010,09:00,0,R,ugm-3,15,R,ugm-3,15,R,ugm-3,26,R,ugm-3
16-01-2010,10:00,0,R,ugm-3,15,R,ugm-3,15,R,ugm-3,24,R,ugm-3
16-01-2010,11:00,1,R,ugm-3,15,R,ugm-3,17,R,ugm-3,22,R,ugm-3
16-01-2010,12:00,1,R,ugm-3,17,R,ugm-3,19,R,ugm-3,22,R,ugm-3
16-01-2010,13:00,1,R,ugm-3,19,R,ugm-3,21,R,ugm-3,22,R,ugm-3
16-01-2010,14:00,3,R,ugm-3,21,R,ugm-3,25,R,ugm-3,22,R,ugm-3
16-01-2010,15:00,3,R,ugm-3,25,R,ugm-3,29,R,ugm-3,22,R,ugm-3
16-01-2010,16:00,3,R,ugm-3,27,R,ugm-3,31,R,ugm-3,20,R,ugm-3
16-01-2010,17:00,3,R,ugm-3,32,R,ugm-3,36,R,ugm-3,16,R,ugm-3
16-01-2010,18:00,3,R,ugm-3,31,R,ugm-3,34,R,ugm-3,14,R,ugm-3
16-01-2010,19:00,5,R,ugm-3,38,R,ugm-3,46,R,ugm-3,10,R,ugm-3
16-01-2010,20:00,9,R,ugm-3,38,R,ugm-3,52,R,ugm-3,8,R,ugm-3
16-01-2010,21:00,9,R,ugm-3,38,R,ugm-3,52,R,ugm-3,6,R,ugm-3
16-01-2010,22:00,4,R,ugm-3,29,R,ugm-3,34,R,ugm-3,10,R,ugm-3
16-01-2010,23:00,8,R,ugm-3,32,R,ugm-3,44,R,ugm-3,4,R,ugm-3
16-01-2010,24:00,18,R,ugm-3,44,R,ugm-3,71,R,ugm-3,2,R,ugm-3
17-01-2010,01:00,11,R,ugm-3,40,R,ugm-3,57,R,ugm-3,2,R,ugm-3
17-01-2010,02:00,4,R,ugm-3,31,R,ugm-3,36,R,ugm-3,10,R,ugm-3
17-01-2010,03:00,10,R,ugm-3,38,R,ugm-3,53,R,ugm-3,8,R,ugm-3
17-01-2010,04:00,5,R,ugm-3,29,R,ugm-3,36,R,ugm-3,24,R,ugm-3
17-01-2010,05:00,0,R,ugm-3,11,R,ugm-3,11,R,ugm-3,42,R,ugm-3
17-01-2010,06:00,0,R,ugm-3,15,R,ugm-3,15,R,ugm-3,36,R,ugm-3
17-01-2010,07:00,0,R,ugm-3,15,R,ugm-3,15,R,ugm-3,38,R,ugm-3
17-01-2010,08:00,0,R,ugm-3,13,R,ugm-3,13,R,ugm-3,42,R,ugm-3